Location: Ingoldesthorpe
(52.8667°N, 0.5167°E)
Time: 20:33:01
(UTC+00:00)

Meteor 2-9 Rocket - Pass Details

Date: 19 May 2025
Orbit: 791 x 892 km, 81.3° (Epoch: 21 June)

Event Time Altitude Azimuth Distance (km) Brightness Sun altitude
Rises 22:12:07 0° 346° (NNW) 3,396 9.1 -13.8°
Reaches altitude 10° 22:14:30 10° 347° (NNW) 2,473 8.0 -14.0°
Maximum altitude 22:20:08 90° 275° (W) 867 4.2 -14.3°
Enters shadow 22:24:07 21° 169° (S) 1,858 5.4 -14.6°
